"read_dt","SO2 (ppb)","flags","PMT voltage (V)","lamp voltage (V)","lamp intensity (Hz)","internal temp (C)","react chamber temp (C)","sample flow (l/min)","pres (mmHg)","SO2 bkg (ppb)","SO2 coefficient"
2016-05-16 00:00:00,1929E-3,5C000400,-0724,0834,12157,030.6,045.5,0.250,748.9,01.17,0.508
2016-05-16 00:01:00,1976E-3,5C000400,-0724,0836,12187,030.6,045.5,0.250,748.9,01.17,0.508
2016-05-16 00:02:00,1864E-3,5C000400,-0724,0834,12230,030.6,045.5,0.250,748.8,01.17,0.508
2016-05-16 00:03:00,2055E-3,5C000400,-0724,0835,12069,030.6,045.5,0.250,748.8,01.17,0.508
2016-05-16 00:04:00,1960E-3,5C000400,-0724,0835,12241,030.6,045.5,0.250,748.9,01.17,0.508
2016-05-16 00:05:00,1897E-3,5C000400,-0724,0834,12128,030.5,045.5,0.250,748.8,01.17,0.508
2016-05-16 00:06:00,1922E-3,5C000400,-0724,0835,12104,030.6,045.5,0.250,748.8,01.17,0.508
2016-05-16 00:07:00,1974E-3,5C000400,-0724,0835,12109,030.5,045.5,0.250,748.8,01.17,0.508
2016-05-16 00:08:00,1904E-3,5C000400,-0724,0834,12198,030.6,045.5,0.251,748.7,01.17,0.508
2016-05-16 00:09:00,1944E-3,5C000400,-0724,0834,11994,030.5,045.5,0.251,748.7,01.17,0.508
2016-05-16 00:10:00,1871E-3,5C000400,-0724,0834,12056,030.5,045.5,0.251,748.7,01.17,0.508
2016-05-16 00:11:00,1947E-3,5C000400,-0724,0834,12174,030.5,045.5,0.251,748.8,01.17,0.508
2016-05-16 00:12:00,1878E-3,5C000400,-0724,0835,11950,030.5,045.5,0.250,748.7,01.17,0.508
2016-05-16 00:13:00,2002E-3,5C000400,-0724,0835,12145,030.5,045.5,0.251,748.8,01.17,0.508
2016-05-16 00:14:00,1848E-3,5C000400,-0724,0835,12187,030.5,045.5,0.250,748.8,01.17,0.508
2016-05-16 00:15:00,2028E-3,5C000400,-0724,0835,12271,030.4,045.5,0.250,748.8,01.17,0.508
2016-05-16 00:16:00,2018E-3,5C000400,-0724,0836,12274,030.4,045.5,0.251,748.8,01.17,0.508
2016-05-16 00:17:00,1942E-3,5C000400,-0724,0835,12059,030.5,045.5,0.250,748.7,01.17,0.508
2016-05-16 00:18:00,1948E-3,5C000400,-0724,0835,12268,030.5,045.5,0.251,748.7,01.17,0.508
2016-05-16 00:19:00,1912E-3,5C000400,-0724,0835,12093,030.4,045.5,0.251,748.7,01.17,0.508
2016-05-16 00:20:00,1877E-3,5C000400,-0724,0835,12073,030.4,045.5,0.250,748.7,01.17,0.508
2016-05-16 00:21:00,1955E-3,5C000400,-0724,0835,12016,030.4,045.5,0.251,748.7,01.17,0.508
2016-05-16 00:22:00,1943E-3,5C000400,-0724,0835,12103,030.4,045.5,0.251,748.7,01.17,0.508
2016-05-16 00:23:00,1960E-3,5C000400,-0724,0835,12195,030.4,045.5,0.250,748.7,01.17,0.508
2016-05-16 00:24:00,1937E-3,5C000400,-0724,0834,12187,030.4,045.5,0.251,748.7,01.17,0.508
2016-05-16 00:25:00,1932E-3,5C000400,-0724,0834,12063,030.4,045.5,0.250,748.7,01.17,0.508
2016-05-16 00:26:00,1975E-3,5C000400,-0724,0834,12130,030.4,045.5,0.251,748.7,01.17,0.508
2016-05-16 00:27:00,1905E-3,5C000400,-0724,0835,12142,030.4,045.5,0.251,748.7,01.17,0.508
2016-05-16 00:28:00,2036E-3,5C000400,-0724,0835,12109,030.4,045.5,0.250,748.7,01.17,0.508
2016-05-16 00:29:00,1990E-3,5C000400,-0724,0835,12126,030.4,045.5,0.251,748.7,01.17,0.508
2016-05-16 00:30:00,1998E-3,5C000400,-0724,0836,12311,030.4,045.5,0.251,748.7,01.17,0.508
2016-05-16 00:31:00,1952E-3,5C000400,-0724,0835,12192,030.3,045.5,0.251,748.7,01.17,0.508
2016-05-16 00:32:00,1881E-3,5C000400,-0724,0835,12079,030.3,045.5,0.251,748.7,01.17,0.508
2016-05-16 00:33:00,2018E-3,5C000400,-0724,0835,12162,030.4,045.5,0.250,748.7,01.17,0.508
2016-05-16 00:34:00,1942E-3,5C000400,-0724,0834,12159,030.4,045.5,0.251,748.7,01.17,0.508
2016-05-16 00:35:00,1979E-3,5C000400,-0724,0835,12215,030.4,045.5,0.251,748.7,01.17,0.508
2016-05-16 00:36:00,2077E-3,5C000400,-0724,0834,12172,030.4,045.5,0.250,748.7,01.17,0.508
2016-05-16 00:37:00,1976E-3,5C000400,-0724,0835,12123,030.4,045.5,0.251,748.7,01.17,0.508
2016-05-16 00:38:00,1994E-3,5C000400,-0724,0834,11947,030.4,045.5,0.250,748.7,01.17,0.508
2016-05-16 00:39:00,2136E-3,5C000400,-0724,0835,12202,030.4,045.5,0.251,748.7,01.17,0.508
2016-05-16 00:40:00,1929E-3,5C000400,-0724,0834,12313,030.3,045.5,0.251,748.7,01.17,0.508
2016-05-16 00:41:00,2016E-3,5C000400,-0724,0835,12162,030.3,045.5,0.250,748.7,01.17,0.508
2016-05-16 00:42:00,1953E-3,5C000400,-0724,0834,12036,030.3,045.5,0.251,748.7,01.17,0.508
2016-05-16 00:43:00,1856E-3,5C000400,-0724,0834,12105,030.4,045.5,0.250,748.7,01.17,0.508
2016-05-16 00:44:00,1992E-3,5C000400,-0724,0834,12142,030.3,045.5,0.251,748.7,01.17,0.508
2016-05-16 00:45:00,2012E-3,5C000400,-0724,0835,12108,030.4,045.5,0.251,748.7,01.17,0.508
2016-05-16 00:46:00,1984E-3,5C000400,-0724,0834,12118,030.3,045.5,0.250,748.6,01.17,0.508
2016-05-16 00:47:00,1970E-3,5C000400,-0724,0835,12230,030.3,045.5,0.251,748.6,01.17,0.508
2016-05-16 00:48:00,2048E-3,5C000400,-0724,0835,12123,030.3,045.5,0.251,748.6,01.17,0.508
2016-05-16 00:49:00,2136E-3,5C000400,-0724,0835,12111,030.3,045.5,0.251,748.7,01.17,0.508
2016-05-16 00:50:00,2195E-3,5C000400,-0724,0835,12155,030.3,045.5,0.251,748.6,01.17,0.508
2016-05-16 00:51:00,2119E-3,5C000400,-0724,0835,12145,030.4,045.5,0.250,748.6,01.17,0.508
2016-05-16 00:52:00,2010E-3,5C000400,-0724,0834,12146,030.3,045.5,0.251,748.7,01.17,0.508
2016-05-16 00:53:00,2067E-3,5C000400,-0724,0835,12069,030.3,045.5,0.251,748.7,01.17,0.508
2016-05-16 00:54:00,2050E-3,5C000400,-0724,0835,12178,030.3,045.5,0.251,748.6,01.17,0.508
2016-05-16 00:55:00,2091E-3,5C000400,-0724,0835,12217,030.3,045.5,0.251,748.6,01.17,0.508
2016-05-16 00:56:00,2091E-3,5C000400,-0724,0835,11924,030.3,045.5,0.251,748.6,01.17,0.508
2016-05-16 00:57:00,1992E-3,5C000400,-0724,0835,12104,030.3,045.5,0.251,748.6,01.17,0.508
2016-05-16 00:58:00,1958E-3,5C000400,-0724,0834,12132,030.3,045.5,0.251,748.6,01.17,0.508
2016-05-16 00:59:00,2136E-3,5C000400,-0724,0835,12153,030.3,045.5,0.250,748.6,01.17,0.508
2016-05-16 01:00:00,2091E-3,5C000400,-0724,0835,12145,030.2,045.5,0.251,748.6,01.17,0.508
2016-05-16 01:01:00,2083E-3,5C000400,-0724,0835,12178,030.3,045.5,0.251,748.6,01.17,0.508
2016-05-16 01:02:00,2136E-3,5C000400,-0724,0835,12139,030.3,045.5,0.251,748.6,01.17,0.508
2016-05-16 01:03:00,2013E-3,5C000400,-0724,0834,12036,030.3,045.5,0.251,748.6,01.17,0.508
2016-05-16 01:04:00,1994E-3,5C000400,-0724,0834,12026,030.3,045.5,0.250,748.6,01.17,0.508
2016-05-16 01:05:00,1887E-3,5C000400,-0724,0835,12090,030.3,045.5,0.251,748.6,01.17,0.508
2016-05-16 01:06:00,1980E-3,5C000400,-0724,0835,12051,030.2,045.5,0.251,748.6,01.17,0.508
2016-05-16 01:07:00,2100E-3,5C000400,-0724,0835,12116,030.3,045.5,0.251,748.6,01.17,0.508
2016-05-16 01:08:00,2073E-3,5C000400,-0724,0834,11959,030.3,045.5,0.251,748.5,01.17,0.508
2016-05-16 01:09:00,2005E-3,5C000400,-0724,0834,12180,030.3,045.5,0.251,748.5,01.17,0.508
2016-05-16 01:10:00,2122E-3,5C000400,-0724,0835,12084,030.2,045.5,0.251,748.5,01.17,0.508
2016-05-16 01:11:00,1900E-3,5C000400,-0724,0835,12068,030.3,045.5,0.251,748.5,01.17,0.508
2016-05-16 01:12:00,1893E-3,5C000400,-0724,0835,12115,030.3,045.5,0.251,748.5,01.17,0.508
2016-05-16 01:13:00,2065E-3,5C000400,-0724,0834,12187,030.2,045.5,0.251,748.6,01.17,0.508
2016-05-16 01:14:00,1962E-3,5C000400,-0724,0835,12186,030.2,045.5,0.251,748.5,01.17,0.508
2016-05-16 01:15:00,1910E-3,5C000400,-0724,0834,12098,030.2,045.5,0.251,748.5,01.17,0.508
2016-05-16 01:16:00,1893E-3,5C000400,-0724,0835,12121,030.2,045.5,0.251,748.5,01.17,0.508
2016-05-16 01:17:00,2037E-3,5C000400,-0724,0835,12093,030.3,045.5,0.251,748.5,01.17,0.508
2016-05-16 01:18:00,1946E-3,5C000400,-0724,0835,12108,030.3,045.5,0.251,748.5,01.17,0.508
2016-05-16 01:19:00,1894E-3,5C000400,-0724,0835,12088,030.2,045.5,0.251,748.5,01.17,0.508
2016-05-16 01:20:00,1850E-3,5C000400,-0724,0835,12047,030.2,045.5,0.251,748.5,01.17,0.508
2016-05-16 01:21:00,1875E-3,5C000400,-0724,0835,11979,030.2,045.5,0.251,748.5,01.17,0.508
2016-05-16 01:22:00,2007E-3,5C000400,-0724,0835,12009,030.2,045.5,0.251,748.5,01.17,0.508
2016-05-16 01:23:00,1790E-3,5C000400,-0724,0835,12238,030.2,045.5,0.251,748.5,01.17,0.508
2016-05-16 01:24:00,2020E-3,5C000400,-0724,0834,12129,030.1,045.5,0.251,748.5,01.17,0.508
2016-05-16 01:25:00,2058E-3,5C000400,-0724,0835,12152,030.2,045.5,0.251,748.5,01.17,0.508
2016-05-16 01:26:00,2101E-3,5C000400,-0724,0835,12160,030.2,045.5,0.251,748.4,01.17,0.508
2016-05-16 01:27:00,1887E-3,5C000400,-0724,0834,12126,030.2,045.5,0.251,748.4,01.17,0.508
2016-05-16 01:28:00,2016E-3,5C000400,-0724,0834,12109,030.2,045.5,0.251,748.4,01.17,0.508
2016-05-16 01:29:00,1896E-3,5C000400,-0724,0834,12088,030.1,045.5,0.251,748.4,01.17,0.508
2016-05-16 01:30:00,1961E-3,5C000400,-0724,0835,12114,030.1,045.5,0.251,748.4,01.17,0.508
2016-05-16 01:31:00,1986E-3,5C000400,-0724,0835,12234,030.2,045.5,0.251,748.4,01.17,0.508
2016-05-16 01:32:00,2147E-3,5C000400,-0724,0834,12095,030.2,045.5,0.251,748.4,01.17,0.508
2016-05-16 01:33:00,2022E-3,5C000400,-0724,0834,12121,030.1,045.5,0.251,748.4,01.17,0.508
2016-05-16 01:34:00,2000E-3,5C000400,-0724,0834,12221,030.1,045.5,0.251,748.4,01.17,0.508
2016-05-16 01:35:00,1938E-3,5C000400,-0724,0835,12123,030.1,045.5,0.251,748.4,01.17,0.508
2016-05-16 01:36:00,1967E-3,5C000400,-0724,0834,12208,030.2,045.5,0.251,748.4,01.17,0.508
2016-05-16 01:37:00,1998E-3,5C000400,-0724,0834,12061,030.1,045.5,0.251,748.4,01.17,0.508
2016-05-16 01:38:00,1913E-3,5C000400,-0724,0834,12220,030.2,045.5,0.251,748.4,01.17,0.508
2016-05-16 01:39:00,1815E-3,5C000400,-0724,0835,11985,030.1,045.5,0.251,748.4,01.17,0.508
2016-05-16 01:40:00,1937E-3,5C000400,-0724,0834,11970,030.1,045.5,0.251,748.5,01.17,0.508
2016-05-16 01:41:00,1951E-3,5C000400,-0724,0835,12084,030.0,045.5,0.251,748.5,01.17,0.508
2016-05-16 01:42:00,2043E-3,5C000400,-0724,0835,12101,030.1,045.5,0.251,748.5,01.17,0.508
2016-05-16 01:43:00,1748E-3,5C000400,-0724,0834,12030,030.1,045.5,0.251,748.5,01.17,0.508
2016-05-16 01:44:00,2003E-3,5C000400,-0724,0834,12086,030.1,045.5,0.251,748.5,01.17,0.508
2016-05-16 01:45:00,2018E-3,5C000400,-0724,0834,12174,030.1,045.5,0.251,748.5,01.17,0.508
2016-05-16 01:46:00,1847E-3,5C000400,-0724,0835,12015,030.0,045.5,0.251,748.5,01.17,0.508
2016-05-16 01:47:00,1941E-3,5C000400,-0724,0835,12135,030.1,045.5,0.251,748.5,01.17,0.508
2016-05-16 01:48:00,2161E-3,5C000400,-0724,0833,12131,030.1,045.5,0.251,748.5,01.17,0.508
2016-05-16 01:49:00,2007E-3,5C000400,-0724,0834,12288,030.1,045.5,0.251,748.5,01.17,0.508
2016-05-16 01:50:00,2042E-3,5C000400,-0724,0834,12101,030.0,045.5,0.251,748.4,01.17,0.508
2016-05-16 01:51:00,2011E-3,5C000400,-0724,0834,12149,030.1,045.5,0.251,748.5,01.17,0.508
2016-05-16 01:52:00,1977E-3,5C000400,-0724,0834,12156,030.1,045.5,0.251,748.5,01.17,0.508
2016-05-16 01:53:00,1976E-3,5C000400,-0724,0834,12235,030.0,045.5,0.251,748.5,01.17,0.508
2016-05-16 01:54:00,1946E-3,5C000400,-0724,0834,12020,030.0,045.5,0.251,748.5,01.17,0.508
2016-05-16 01:55:00,2058E-3,5C000400,-0724,0834,12194,030.1,045.5,0.251,748.5,01.17,0.508
2016-05-16 01:56:00,2009E-3,5C000400,-0724,0835,12166,030.0,045.5,0.251,748.5,01.17,0.508
2016-05-16 01:57:00,1901E-3,5C000400,-0724,0834,12021,030.1,045.5,0.251,748.5,01.17,0.508
2016-05-16 01:58:00,1930E-3,5C000400,-0724,0834,12070,030.0,045.5,0.251,748.5,01.17,0.508
2016-05-16 01:59:00,1916E-3,5C000400,-0724,0835,12130,030.0,045.5,0.251,748.5,01.17,0.508
2016-05-16 02:00:00,1971E-3,5C000400,-0724,0834,12189,030.0,045.5,0.251,748.5,01.17,0.508
2016-05-16 02:01:00,1900E-3,5C000400,-0724,0835,12058,030.0,045.5,0.251,748.5,01.17,0.508
2016-05-16 02:02:00,2035E-3,5C000400,-0724,0835,12148,030.0,045.5,0.251,748.5,01.17,0.508
2016-05-16 02:03:00,1950E-3,5C000400,-0724,0834,12234,030.1,045.5,0.251,748.5,01.17,0.508
2016-05-16 02:04:00,1912E-3,5C000400,-0724,0834,12164,030.0,045.5,0.251,748.5,01.17,0.508
2016-05-16 02:05:00,2011E-3,5C000400,-0724,0835,11951,030.0,045.5,0.251,748.5,01.17,0.508
2016-05-16 02:06:00,1968E-3,5C000400,-0724,0834,12009,030.0,045.5,0.251,748.6,01.17,0.508
2016-05-16 02:07:00,1998E-3,5C000400,-0724,0834,12175,030.0,045.5,0.251,748.5,01.17,0.508
2016-05-16 02:08:00,1962E-3,5C000400,-0724,0835,12184,030.0,045.5,0.252,748.5,01.17,0.508
2016-05-16 02:09:00,1955E-3,5C000400,-0724,0834,12169,030.0,045.5,0.251,748.4,01.17,0.508
2016-05-16 02:10:00,1871E-3,5C000400,-0724,0834,12086,030.0,045.5,0.252,748.4,01.17,0.508
2016-05-16 02:11:00,1941E-3,5C000400,-0724,0835,11957,029.9,045.5,0.252,748.4,01.17,0.508
2016-05-16 02:12:00,1892E-3,5C000400,-0724,0834,12189,030.0,045.5,0.251,748.4,01.17,0.508
2016-05-16 02:13:00,1962E-3,5C000400,-0724,0834,12191,030.0,045.5,0.251,748.4,01.17,0.508
2016-05-16 02:14:00,1899E-3,5C000400,-0724,0834,12216,030.0,045.5,0.251,748.4,01.17,0.508
2016-05-16 02:15:00,1816E-3,5C000400,-0724,0835,12162,030.0,045.5,0.251,748.4,01.17,0.508
2016-05-16 02:16:00,1954E-3,5C000400,-0724,0835,12053,029.9,045.5,0.251,748.4,01.17,0.508
2016-05-16 02:17:00,2015E-3,5C000400,-0724,0834,12142,029.9,045.5,0.251,748.3,01.17,0.508
2016-05-16 02:18:00,1863E-3,5C000400,-0724,0835,12236,030.0,045.5,0.251,748.3,01.17,0.508
2016-05-16 02:19:00,1886E-3,5C000400,-0724,0834,12106,029.9,045.5,0.252,748.3,01.17,0.508
2016-05-16 02:20:00,1948E-3,5C000400,-0724,0835,12233,029.9,045.5,0.251,748.4,01.17,0.508
2016-05-16 02:21:00,1929E-3,5C000400,-0724,0834,12120,029.9,045.5,0.251,748.3,01.17,0.508
2016-05-16 02:22:00,1949E-3,5C000400,-0724,0835,12160,029.9,045.5,0.252,748.4,01.17,0.508
2016-05-16 02:23:00,1867E-3,5C000400,-0724,0834,12200,029.9,045.5,0.251,748.4,01.17,0.508
2016-05-16 02:24:00,1870E-3,5C000400,-0724,0835,12078,029.9,045.5,0.252,748.4,01.17,0.508
2016-05-16 02:25:00,1929E-3,5C000400,-0724,0835,12191,029.9,045.5,0.252,748.4,01.17,0.508
2016-05-16 02:26:00,1838E-3,5C000400,-0724,0834,12089,029.9,045.5,0.251,748.4,01.17,0.508
2016-05-16 02:27:00,1795E-3,5C000400,-0724,0835,12329,029.8,045.5,0.252,748.5,01.17,0.508
2016-05-16 02:28:00,1996E-3,5C000400,-0724,0834,12247,029.9,045.5,0.252,748.5,01.17,0.508
2016-05-16 02:29:00,1955E-3,5C000400,-0724,0834,12220,029.9,045.5,0.251,748.5,01.17,0.508
2016-05-16 02:30:00,1807E-3,5C000400,-0724,0834,12207,029.9,045.5,0.252,748.5,01.17,0.508
2016-05-16 02:31:00,1962E-3,5C000400,-0724,0834,12166,029.8,045.5,0.252,748.5,01.17,0.508
2016-05-16 02:32:00,1857E-3,5C000400,-0724,0835,12153,029.8,045.5,0.251,748.5,01.17,0.508
2016-05-16 02:33:00,1986E-3,5C000400,-0724,0834,12154,029.9,045.5,0.252,748.5,01.17,0.508
2016-05-16 02:34:00,1819E-3,5C000400,-0724,0835,12188,029.9,045.5,0.251,748.5,01.17,0.508
2016-05-16 02:35:00,1816E-3,5C000400,-0724,0834,12066,029.9,045.5,0.251,748.4,01.17,0.508
2016-05-16 02:36:00,1866E-3,5C000400,-0724,0835,12147,029.9,045.5,0.252,748.4,01.17,0.508
2016-05-16 02:37:00,2055E-3,5C000400,-0724,0834,12201,029.8,045.5,0.251,748.5,01.17,0.508
2016-05-16 02:38:00,1933E-3,5C000400,-0724,0835,12142,029.8,045.5,0.251,748.5,01.17,0.508
2016-05-16 02:39:00,1939E-3,5C000400,-0724,0835,12252,029.8,045.5,0.252,748.5,01.17,0.508
2016-05-16 02:40:00,2043E-3,5C000400,-0724,0835,12130,029.9,045.5,0.252,748.4,01.17,0.508
2016-05-16 02:41:00,1932E-3,5C000400,-0724,0834,12140,029.9,045.5,0.251,748.4,01.17,0.508
2016-05-16 02:42:00,1804E-3,5C000400,-0724,0835,12212,029.8,045.5,0.252,748.4,01.17,0.508
2016-05-16 02:43:00,1911E-3,5C000400,-0724,0835,12102,029.8,045.5,0.252,748.5,01.17,0.508
2016-05-16 02:44:00,1946E-3,5C000400,-0724,0834,12228,029.8,045.5,0.251,748.4,01.17,0.508
2016-05-16 02:45:00,1923E-3,5C000400,-0724,0835,12199,029.8,045.5,0.252,748.4,01.17,0.508
2016-05-16 02:46:00,1984E-3,5C000400,-0724,0834,12228,029.8,045.5,0.252,748.4,01.17,0.508
2016-05-16 02:47:00,1989E-3,5C000400,-0724,0835,12144,029.7,045.5,0.252,748.4,01.17,0.508
2016-05-16 02:48:00,1870E-3,5C000400,-0724,0834,12200,029.8,045.5,0.252,748.4,01.17,0.508
2016-05-16 02:49:00,1791E-3,5C000400,-0724,0835,11984,029.8,045.5,0.252,748.4,01.17,0.508
2016-05-16 02:50:00,1932E-3,5C000400,-0724,0834,12151,029.7,045.5,0.252,748.4,01.17,0.508
2016-05-16 02:51:00,1909E-3,5C000400,-0724,0834,12002,029.8,045.5,0.252,748.4,01.17,0.508
2016-05-16 02:52:00,1926E-3,5C000400,-0724,0834,12004,029.7,045.5,0.252,748.4,01.17,0.508
2016-05-16 02:53:00,1992E-3,5C000400,-0724,0834,12105,029.7,045.5,0.252,748.4,01.17,0.508
2016-05-16 02:54:00,1881E-3,5C000400,-0724,0834,12272,029.7,045.5,0.252,748.4,01.17,0.508
2016-05-16 02:55:00,1991E-3,5C000400,-0724,0834,11964,029.7,045.5,0.252,748.5,01.17,0.508
2016-05-16 02:56:00,1959E-3,5C000400,-0724,0834,12230,029.7,045.5,0.252,748.4,01.17,0.508
2016-05-16 02:57:00,1998E-3,5C000400,-0724,0834,12226,029.7,045.5,0.252,748.4,01.17,0.508
2016-05-16 02:58:00,1981E-3,5C000400,-0724,0834,12287,029.7,045.5,0.252,748.4,01.17,0.508
2016-05-16 02:59:00,1962E-3,5C000400,-0724,0835,11941,029.7,045.5,0.252,748.4,01.17,0.508
2016-05-16 03:00:00,2080E-3,5C000400,-0724,0834,12186,029.7,045.5,0.252,748.4,01.17,0.508
2016-05-16 03:01:00,1865E-3,5C000400,-0724,0835,12091,029.7,045.5,0.252,748.4,01.17,0.508
2016-05-16 03:02:00,1906E-3,5C000400,-0724,0834,12092,029.7,045.5,0.252,748.4,01.17,0.508
2016-05-16 03:03:00,1882E-3,5C000400,-0724,0834,12083,029.7,045.5,0.252,748.4,01.17,0.508
2016-05-16 03:04:00,2063E-3,5C000400,-0724,0835,12105,029.7,045.5,0.252,748.5,01.17,0.508
2016-05-16 03:05:00,1994E-3,5C000400,-0724,0834,12201,029.7,045.5,0.252,748.4,01.17,0.508
2016-05-16 03:06:00,1991E-3,5C000400,-0724,0834,12274,029.7,045.5,0.252,748.4,01.17,0.508
2016-05-16 03:07:00,2130E-3,5C000400,-0724,0834,12252,029.6,045.5,0.252,748.3,01.17,0.508
2016-05-16 03:08:00,2006E-3,5C000400,-0724,0834,12203,029.6,045.5,0.252,748.3,01.17,0.508
2016-05-16 03:09:00,1965E-3,5C000400,-0724,0834,12158,029.7,045.5,0.252,748.3,01.17,0.508
2016-05-16 03:10:00,2166E-3,5C000400,-0724,0834,11996,029.6,045.5,0.252,748.3,01.17,0.508
2016-05-16 03:11:00,1998E-3,5C000400,-0724,0834,12134,029.7,045.5,0.252,748.3,01.17,0.508
2016-05-16 03:12:00,1849E-3,5C000400,-0724,0834,12158,029.6,045.5,0.252,748.2,01.17,0.508
2016-05-16 03:13:00,2339E-3,5C000400,-0724,0834,12060,029.7,045.5,0.252,748.3,01.17,0.508
2016-05-16 03:14:00,2110E-3,5C000400,-0724,0834,12203,029.6,045.5,0.252,748.3,01.17,0.508
2016-05-16 03:15:00,1941E-3,5C000400,-0724,0834,12119,029.6,045.5,0.252,748.3,01.17,0.508
2016-05-16 03:16:00,1944E-3,5C000400,-0724,0834,12088,029.6,045.5,0.252,748.3,01.17,0.508
2016-05-16 03:17:00,1918E-3,5C000400,-0724,0834,11915,029.6,045.5,0.252,748.3,01.17,0.508
2016-05-16 03:18:00,1965E-3,5C000400,-0724,0834,12051,029.6,045.5,0.252,748.3,01.17,0.508
2016-05-16 03:19:00,2067E-3,5C000400,-0724,0834,12104,029.6,045.5,0.252,748.2,01.17,0.508
2016-05-16 03:20:00,2090E-3,5C000400,-0724,0835,12156,029.6,045.5,0.252,748.2,01.17,0.508
2016-05-16 03:21:00,2094E-3,5C000400,-0724,0834,12136,029.6,045.5,0.252,748.2,01.17,0.508
2016-05-16 03:22:00,1920E-3,5C000400,-0724,0834,12156,029.6,045.5,0.252,748.2,01.17,0.508
2016-05-16 03:23:00,2160E-3,5C000400,-0724,0835,12326,029.6,045.5,0.252,748.2,01.17,0.508
2016-05-16 03:24:00,2061E-3,5C000400,-0724,0834,12203,029.6,045.5,0.252,748.2,01.17,0.508
2016-05-16 03:25:00,1988E-3,5C000400,-0724,0834,12107,029.6,045.5,0.252,748.3,01.17,0.508
2016-05-16 03:26:00,2128E-3,5C000400,-0724,0835,12051,029.6,045.5,0.252,748.3,01.17,0.508
2016-05-16 03:27:00,2037E-3,5C000400,-0724,0834,12141,029.6,045.5,0.252,748.3,01.17,0.508
2016-05-16 03:28:00,2101E-3,5C000400,-0724,0834,12034,029.6,045.5,0.252,748.3,01.17,0.508
2016-05-16 03:29:00,1908E-3,5C000400,-0724,0834,12122,029.6,045.5,0.252,748.2,01.17,0.508
2016-05-16 03:30:00,1933E-3,5C000400,-0724,0835,12160,029.6,045.5,0.252,748.2,01.17,0.508
2016-05-16 03:31:00,2071E-3,5C000400,-0724,0834,12063,029.6,045.5,0.252,748.2,01.17,0.508
2016-05-16 03:32:00,2093E-3,5C000400,-0724,0834,12226,029.6,045.5,0.252,748.3,01.17,0.508
2016-05-16 03:33:00,2064E-3,5C000400,-0724,0834,12190,029.6,045.5,0.252,748.3,01.17,0.508
2016-05-16 03:34:00,2011E-3,5C000400,-0724,0835,12200,029.6,045.5,0.252,748.2,01.17,0.508
2016-05-16 03:35:00,2116E-3,5C000400,-0724,0835,12155,029.6,045.5,0.252,748.3,01.17,0.508
2016-05-16 03:36:00,2021E-3,5C000400,-0724,0835,12136,029.6,045.5,0.252,748.2,01.17,0.508
2016-05-16 03:37:00,2030E-3,5C000400,-0724,0834,12268,029.6,045.5,0.252,748.2,01.17,0.508
2016-05-16 03:38:00,2180E-3,5C000400,-0724,0835,12180,029.6,045.5,0.252,748.2,01.17,0.508
2016-05-16 03:39:00,2044E-3,5C000400,-0724,0835,12270,029.6,045.5,0.252,748.2,01.17,0.508
2016-05-16 03:40:00,1905E-3,5C000400,-0724,0834,12179,029.5,045.5,0.252,748.2,01.17,0.508
2016-05-16 03:41:00,2039E-3,5C000400,-0724,0835,11992,029.6,045.5,0.252,748.2,01.17,0.508
2016-05-16 03:42:00,1854E-3,5C000400,-0724,0834,12094,029.6,045.5,0.252,748.2,01.17,0.508
2016-05-16 03:43:00,1962E-3,5C000400,-0724,0835,12187,029.6,045.5,0.252,748.2,01.17,0.508
2016-05-16 03:44:00,2064E-3,5C000400,-0724,0834,12215,029.6,045.5,0.252,748.2,01.17,0.508
2016-05-16 03:45:00,1970E-3,5C000400,-0724,0834,12013,029.6,045.5,0.252,748.2,01.17,0.508
2016-05-16 03:46:00,1946E-3,5C000400,-0724,0835,12229,029.6,045.5,0.252,748.2,01.17,0.508
2016-05-16 03:47:00,2120E-3,5C000400,-0724,0834,12228,029.6,045.5,0.252,748.2,01.17,0.508
2016-05-16 03:48:00,2034E-3,5C000400,-0724,0834,12277,029.6,045.5,0.252,748.2,01.17,0.508
2016-05-16 03:49:00,2158E-3,5C000400,-0724,0834,12265,029.5,045.5,0.252,748.2,01.17,0.508
2016-05-16 03:50:00,1996E-3,5C000400,-0724,0835,11977,029.6,045.5,0.252,748.2,01.17,0.508
2016-05-16 03:51:00,2029E-3,5C000400,-0724,0834,12296,029.6,045.5,0.252,748.2,01.17,0.508
2016-05-16 03:52:00,1936E-3,5C000400,-0724,0834,12054,029.5,045.5,0.252,748.2,01.17,0.508
2016-05-16 03:53:00,1946E-3,5C000400,-0724,0835,12189,029.5,045.5,0.252,748.1,01.17,0.508
2016-05-16 03:54:00,1984E-3,5C000400,-0724,0834,12232,029.5,045.5,0.252,748.1,01.17,0.508
2016-05-16 03:55:00,2089E-3,5C000400,-0724,0834,12069,029.5,045.5,0.252,748.1,01.17,0.508
2016-05-16 03:56:00,2028E-3,5C000400,-0724,0834,12187,029.5,045.5,0.252,748.1,01.17,0.508
2016-05-16 03:57:00,1941E-3,5C000400,-0724,0834,12167,029.6,045.5,0.252,748.1,01.17,0.508
2016-05-16 03:58:00,2076E-3,5C000400,-0724,0834,12091,029.5,045.5,0.252,748.1,01.17,0.508
2016-05-16 03:59:00,1739E-3,5C000400,-0724,0835,12222,029.5,045.5,0.252,748.1,01.17,0.508
2016-05-16 04:00:00,1950E-3,5C000400,-0724,0834,12186,029.5,045.5,0.252,748.1,01.17,0.508
2016-05-16 04:01:00,1837E-3,5C000400,-0724,0834,12196,029.5,045.5,0.252,748.1,01.17,0.508
2016-05-16 04:02:00,1939E-3,5C000400,-0724,0834,12149,029.5,045.5,0.252,748.1,01.17,0.508
2016-05-16 04:03:00,1910E-3,5C000400,-0724,0835,12162,029.5,045.5,0.252,748.1,01.17,0.508
2016-05-16 04:04:00,2056E-3,5C000400,-0724,0834,12122,029.5,045.5,0.252,748.1,01.17,0.508
2016-05-16 04:05:00,1867E-3,5C000400,-0724,0834,12077,029.5,045.5,0.252,748.1,01.17,0.508
2016-05-16 04:06:00,1812E-3,5C000400,-0724,0834,12242,029.5,045.5,0.252,748.1,01.17,0.508
2016-05-16 04:07:00,1877E-3,5C000400,-0724,0834,12088,029.5,045.5,0.252,748.2,01.17,0.508
2016-05-16 04:08:00,1888E-3,5C000400,-0724,0834,11959,029.5,045.5,0.252,748.1,01.17,0.508
2016-05-16 04:09:00,1940E-3,5C000400,-0724,0834,12106,029.5,045.5,0.252,748.1,01.17,0.508
2016-05-16 04:10:00,2037E-3,5C000400,-0724,0835,12176,029.5,045.5,0.252,748.1,01.17,0.508
2016-05-16 04:11:00,1772E-3,5C000400,-0724,0834,12121,029.5,045.5,0.252,748.1,01.17,0.508
2016-05-16 04:12:00,1879E-3,5C000400,-0724,0835,12254,029.5,045.5,0.252,748.2,01.17,0.508
2016-05-16 04:13:00,2020E-3,5C000400,-0724,0834,12257,029.5,045.5,0.252,748.2,01.17,0.508
2016-05-16 04:14:00,1999E-3,5C000400,-0724,0834,12251,029.5,045.5,0.252,748.2,01.17,0.508
2016-05-16 04:15:00,2022E-3,5C000400,-0724,0835,12171,029.5,045.5,0.252,748.2,01.17,0.508
2016-05-16 04:16:00,1940E-3,5C000400,-0724,0834,12102,029.5,045.5,0.252,748.2,01.17,0.508
2016-05-16 04:17:00,1939E-3,5C000400,-0724,0834,12284,029.5,045.5,0.252,748.3,01.17,0.508
2016-05-16 04:18:00,1950E-3,5C000400,-0724,0835,12164,029.5,045.5,0.252,748.3,01.17,0.508
2016-05-16 04:19:00,1878E-3,5C000400,-0724,0835,12057,029.5,045.5,0.252,748.3,01.17,0.508
2016-05-16 04:20:00,2003E-3,5C000400,-0724,0834,12059,029.5,045.5,0.252,748.3,01.17,0.508